KC5KKT-1 Weather Reports


Display with metric or nautical units.
time (UTC)temp
F
wind
direction
speed
MPH
gust
MPH
rain 1hr
in
rain 24hr
in
rain mn
in
humidity
%
barometer
mb
20220118102003 41 270 4.0 7.0 0.00 0.00 0.00 64 1012.6
20220118101003 41 272 5.0 7.0 0.00 0.00 0.00 64 1012.7
20220118100003 42 275 5.0 9.0 0.00 0.00 0.00 63 1012.9
20220118095003 42 278 5.0 8.0 0.00 0.00 0.00 64 1012.9
20220118094003 42 274 5.0 9.0 0.00 0.00 0.00 64 1012.9
20220118093004 42 272 5.0 8.0 0.00 0.00 0.00 63 1013.1
20220118092002 42 276 5.0 8.0 0.00 0.00 0.00 63 1013.2
20220118091003 43 273 5.0 9.0 0.00 0.00 0.00 62 1013.3
20220118090003 43 271 6.0 9.0 0.00 0.00 0.00 62 1013.4
20220118085003 44 273 7.0 11.0 0.00 0.00 0.00 61 1013.5
20220118084003 44 273 7.0 10.0 0.00 0.00 0.00 61 1013.6
20220118083003 44 277 7.0 12.0 0.00 0.00 0.00 61 1013.6
20220118082002 44 275 7.0 11.0 0.00 0.00 0.00 61 1013.6
20220118081002 44 266 6.0 10.0 0.00 0.00 0.00 60 1013.7
20220118080003 44 267 7.0 10.0 0.00 0.00 0.00 60 1013.7
20220118075003 44 268 6.0 8.0 0.00 0.00 0.00 60 1013.9
20220118074002 44 270 5.0 10.0 0.00 0.00 0.00 59 1013.9
20220118073003 45 266 6.0 9.0 0.00 0.00 0.00 59 1014.0
20220118072003 45 267 6.0 9.0 0.00 0.00 0.00 58 1014.2
20220118071003 45 268 6.0 9.0 0.00 0.00 0.00 58 1014.3
20220118070003 45 271 6.0 10.0 0.00 0.00 0.00 57 1014.5
20220118065003 46 267 6.0 9.0 0.00 0.00 0.00 57 1014.4
20220118064003 46 266 6.0 10.0 0.00 0.00 0.00 56 1014.6
20220118063003 46 269 6.0 10.0 0.00 0.00 0.00 56 1014.7
20220118062002 45 265 6.0 9.0 0.00 0.00 0.00 57 1014.9
20220118061003 46 266 6.0 9.0 0.00 0.00 0.00 57 1015.0
20220118060007 46 267 6.0 9.0 0.00 0.00 0.00 56 1015.1
20220118055002 46 270 6.0 8.0 0.00 0.00 0.00 56 1015.2
20220118054003 46 264 6.0 10.0 0.00 0.00 0.00 55 1015.4
20220118053003 46 266 5.0 9.0 0.00 0.00 0.00 55 1015.3
20220118052003 46 268 5.0 9.0 0.00 0.00 0.00 55 1015.4
20220118051003 46 269 4.0 8.0 0.00 0.00 0.00 56 1015.5
20220118050004 46 266 3.0 6.0 0.00 0.00 0.00 56 1015.6
20220118045003 46 265 3.0 6.0 0.00 0.00 0.00 55 1015.7
20220118044003 46 265 3.0 5.0 0.00 0.00 0.00 54 1015.7
20220118043004 46 260 3.0 5.0 0.00 0.00 0.00 54 1015.7
20220118042003 47 254 4.0 6.0 0.00 0.00 0.00 53 1015.9
20220118041003 47 259 5.0 8.0 0.00 0.00 0.00 52 1015.9
20220118040003 48 259 5.0 9.0 0.00 0.00 0.00 51 1016.0
20220118035003 48 257 7.0 11.0 0.00 0.00 0.00 51 1016.0
20220118034003 48 266 7.0 10.0 0.00 0.00 0.00 51 1016.1
20220118033003 48 259 7.0 12.0 0.00 0.00 0.00 51 1016.2
20220118032003 48 262 6.0 10.0 0.00 0.00 0.00 52 1016.3
20220118031002 48 261 4.0 7.0 0.00 0.00 0.00 52 1016.3
20220118030003 48 261 5.0 7.0 0.00 0.00 0.00 51 1016.3
20220118025003 49 259 5.0 9.0 0.00 0.00 0.00 50 1016.4
20220118024003 49 251 5.0 8.0 0.00 0.00 0.00 50 1016.4
20220118023003 48 253 5.0 8.0 0.00 0.00 0.00 51 1016.4
20220118022003 48 252 5.0 9.0 0.00 0.00 0.00 50 1016.4
20220118021002 48 255 5.0 8.0 0.00 0.00 0.00 50 1016.4
20220118020003 48 259 4.0 6.0 0.00 0.00 0.00 50 1016.5
20220118015002 48 255 3.0 5.0 0.00 0.00 0.00 50 1016.4
20220118014002 48 257 3.0 5.0 0.00 0.00 0.00 50 1016.4
20220118013003 48 246 2.0 4.0 0.00 0.00 0.00 51 1016.4
20220118012002 49 241 3.0 4.0 0.00 0.00 0.00 50 1016.3
20220118011002 49 244 2.0 4.0 0.00 0.00 0.00 50 1016.2
20220118010003 50 244 2.0 4.0 0.00 0.00 0.00 49 1016.1
20220118005003 50 239 2.0 3.0 0.00 0.00 0.00 49 1016.1
20220118004003 51 234 2.0 3.0 0.00 0.00 0.00 47 1016.0
20220118003003 51 238 1.0 3.0 0.00 0.00 0.00 47 1016.0
20220118002003 52 242 1.0 3.0 0.00 0.00 0.00 46 1016.1
20220118001003 53 237 1.0 3.0 0.00 0.00 0.00 45 1016.2
20220118000003 54 245 1.0 2.0 0.00 0.00 0.00 43 1016.2
20220117235003 54 247 1.0 3.0 0.00 0.00 0.00 42 1016.2
20220117234002 56 250 1.0 3.0 0.00 0.00 0.00 41 1016.2
20220117233003 56 260 1.0 3.0 0.00 0.00 0.00 40 1016.2
20220117232003 58 273 2.0 5.0 0.00 0.00 0.00 39 1016.4
20220117231003 59 267 4.0 9.0 0.00 0.00 0.00 37 1016.3
20220117230003 59 270 5.0 10.0 0.00 0.00 0.00 36 1016.7
20220117225003 60 262 5.0 8.0 0.00 0.00 0.00 36 1016.7
20220117224003 60 272 6.0 11.0 0.00 0.00 0.00 35 1016.8
20220117223004 60 282 5.0 9.0 0.00 0.00 0.00 35 1016.8
20220117222003 61 277 6.0 10.0 0.00 0.00 0.00 35 1016.8
20220117221003 61 276 5.0 10.0 0.00 0.00 0.00 34 1017.1
20220117220003 61 293 6.0 12.0 0.00 0.00 0.00 34 1017.1
20220117215003 61 284 7.0 12.0 0.00 0.00 0.00 34 1017.2
20220117214003 61 292 6.0 12.0 0.00 0.00 0.00 33 1017.3
20220117213003 62 290 6.0 11.0 0.00 0.00 0.00 34 1017.3
20220117212003 62 281 6.0 15.0 0.00 0.00 0.00 33 1017.3
20220117211002 62 299 5.0 11.0 0.00 0.00 0.00 33 1017.4
20220117210003 61 279 7.0 12.0 0.00 0.00 0.00 33 1017.6
20220117205002 61 281 7.0 13.0 0.00 0.00 0.00 34 1017.6
20220117204003 62 278 5.0 10.0 0.00 0.00 0.00 34 1017.8
20220117203003 61 284 5.0 13.0 0.00 0.00 0.00 34 1018.0
20220117202004 61 297 6.0 13.0 0.00 0.00 0.00 34 1018.2
20220117201003 61 298 5.0 11.0 0.00 0.00 0.00 35 1018.3
20220117200003 61 306 5.0 9.0 0.00 0.00 0.00 35 1018.5
20220117195003 61 289 6.0 13.0 0.00 0.00 0.00 35 1018.6
20220117194003 61 290 6.0 14.0 0.00 0.00 0.00 35 1018.8
20220117193003 60 290 6.0 11.0 0.00 0.00 0.00 36 1018.8
20220117192003 60 279 5.0 12.0 0.00 0.00 0.00 35 1019.2
20220117191003 60 279 5.0 12.0 0.00 0.00 0.00 35 1020.2
20220117190003 60 274 6.0 11.0 0.00 0.00 0.00 36 1019.9
20220117185003 59 274 5.0 10.0 0.00 0.00 0.00 38 1019.7
20220117184003 59 266 6.0 16.0 0.00 0.00 0.00 39 1020.1
20220117183003 58 256 6.0 13.0 0.00 0.00 0.00 38 1020.4
20220117182002 58 267 4.0 9.0 0.00 0.00 0.00 39 1020.8
20220117181003 58 260 6.0 13.0 0.00 0.00 0.00 39 1021.1
20220117180003 57 276 4.0 9.0 0.00 0.00 0.00 41 1021.1
20220117175002 56 250 6.0 12.0 0.00 0.00 0.00 42 1021.2
20220117174003 56 246 5.0 9.0 0.00 0.00 0.00 44 1021.2
20220117173004 55 251 3.0 8.0 0.00 0.00 0.00 45 1021.6
20220117172003 55 243 5.0 10.0 0.00 0.00 0.00 46 1022.0
20220117171003 54 232 4.0 8.0 0.00 0.00 0.00 47 1022.2
20220117170003 54 247 4.0 9.0 0.00 0.00 0.00 46 1022.2
20220117165003 53 248 5.0 8.0 0.00 0.00 0.00 47 1022.3
20220117164003 52 252 5.0 8.0 0.00 0.00 0.00 47 1022.2
20220117163004 52 246 4.0 7.0 0.00 0.00 0.00 47 1022.2
20220117162002 52 232 2.0 5.0 0.00 0.00 0.00 47 1022.1
20220117161003 50 230 1.0 4.0 0.00 0.00 0.00 49 1022.1
20220117160004 48 207 1.0 3.0 0.00 0.00 0.00 52 1022.2
20220117155003 46 190 0.0 2.0 0.00 0.00 0.00 53 1022.1
20220117154003 44 64 0.0 1.0 0.00 0.00 0.00 57 1021.9
20220117153003 42 0 0.0 0.0 0.00 0.00 0.00 59 1021.9
20220117152003 41 87 0.0 1.0 0.00 0.00 0.00 62 1021.8
20220117151003 39 111 0.0 2.0 0.00 0.00 0.00 60 1021.7
20220117150003 37 112 1.0 2.0 0.00 0.00 0.00 62 1021.6
20220117145002 36 98 0.0 1.0 0.00 0.00 0.00 63 1021.3
20220117144003 36 108 0.0 1.0 0.00 0.00 0.00 64 1021.2
20220117143003 36 260 0.0 1.0 0.00 0.00 0.00 64 1021.0
20220117142003 36 0 0.0 0.0 0.00 0.00 0.00 64 1020.9
20220117141003 35 0 0.0 0.0 0.00 0.00 0.00 65 1020.8
20220117140003 34 261 0.0 1.0 0.00 0.00 0.00 66 1020.6
20220117135002 33 266 0.0 1.0 0.00 0.00 0.00 67 1020.4
20220117134003 31 0 0.0 0.0 0.00 0.00 0.00 70 1020.4
20220117133003 30 0 0.0 0.0 0.00 0.00 0.00 70 1020.4
20220117132002 30 0 0.0 0.0 0.00 0.00 0.00 69 1020.4
20220117131003 30 0 0.0 0.0 0.00 0.00 0.00 70 1020.4
20220117130003 30 0 0.0 0.0 0.00 0.00 0.00 69 1020.3
20220117125003 30 0 0.0 0.0 0.00 0.00 0.00 69 1020.2
20220117124003 30 0 0.0 0.0 0.00 0.00 0.00 69 1020.0
20220117123003 30 0 0.0 0.0 0.00 0.00 0.00 69 1020.0
20220117122003 30 0 0.0 0.0 0.00 0.00 0.00 70 1020.0
20220117121003 30 0 0.0 0.0 0.00 0.00 0.00 69 1019.9
20220117120003 30 42 0.0 1.0 0.00 0.00 0.00 70 1019.9
20220117115002 30 0 0.0 0.0 0.00 0.00 0.00 69 1019.8
20220117114003 30 0 0.0 0.0 0.00 0.00 0.00 68 1019.8
20220117113003 30 0 0.0 0.0 0.00 0.00 0.00 69 1019.8
20220117112003 31 64 0.0 1.0 0.00 0.00 0.00 68 1019.8
20220117111002 31 0 0.0 0.0 0.00 0.00 0.00 66 1019.8
20220117110003 32 49 0.0 1.0 0.00 0.00 0.00 66 1019.8
20220117105003 31 39 0.0 1.0 0.00 0.00 0.00 68 1019.5
20220117104002 31 46 0.0 1.0 0.00 0.00 0.00 67 1019.6
20220117103003 31 45 0.0 1.0 0.00 0.00 0.00 68 1019.6